GFSWCAN_925_thetae_021.txt.gz
Theta_e
295 295 296 297 298 299 298 299 299 299 299 300 300 300 299 300 299 296 295 294 294 292 293 293 293 295 294 296 298 291 296 294 293 298 298 295 292 291 288 289 291 291 290 291 288 286 291 289 289 292 290 287 287 287
293 295 295 296 298 298 298 298 298 299 299 299 299 298 298 299 298 298 296 295 294 292 292 293 293 293 294 294 291 288 294 291 294 292 288 289 288 286 286 288 288 291 292 290 292 292 290 289 290 289 288 288 288 289
292 294 294 295 297 297 298 298 298 298 298 298 298 298 299 298 298 299 297 295 294 291 291 291 293 294 294 293 293 293 288 290 291 289 286 285 286 288 285 286 286 287 286 288 289 288 288 288 289 288 288 288 288 288
292 293 294 294 296 296 296 297 297 298 298 299 298 298 298 298 298 298 298 296 295 293 290 291 291 292 294 294 293 292 290 289 289 289 287 284 284 289 287 288 288 288 287 286 286 288 288 288 288 289 288 287 287 286
291 292 292 293 294 295 296 296 297 298 298 298 297 297 298 297 298 298 298 297 296 293 290 287 288 293 294 294 292 291 290 289 289 288 284 285 286 287 283 288 287 287 289 288 288 289 289 290 288 288 288 287 286 285
291 291 292 292 292 295 295 296 295 297 297 297 298 297 297 297 297 299 295 296 296 296 295 291 289 287 291 292 290 289 289 288 288 289 287 287 288 289 283 282 290 290 288 288 288 289 289 289 288 287 287 286 286 285
290 291 292 292 292 294 295 296 296 296 295 297 296 296 297 296 298 294 295 294 295 295 295 293 286 287 289 288 285 289 288 289 288 289 287 290 289 291 290 286 292 290 288 288 287 288 289 287 288 286 285 285 286 285
290 290 291 291 291 294 295 295 296 296 295 295 295 295 294 294 295 293 292 295 296 294 293 295 285 289 289 289 291 288 290 290 291 293 290 288 291 293 290 291 291 290 288 287 287 287 289 289 285 285 284 281 280 281
290 290 291 291 293 295 295 295 295 295 296 294 294 294 294 293 292 293 294 293 292 292 294 292 287 285 288 293 292 292 293 292 292 293 291 292 291 292 291 291 290 290 290 290 290 284 285 284 287 283 281 276 280 282
291 291 291 292 292 294 294 294 294 295 295 294 293 292 292 291 292 293 295 294 293 292 293 292 280 281 290 288 286 291 293 294 293 292 291 293 294 292 291 287 288 289 289 289 283 283 275 279 283 282 280 281 281 280
290 292 292 293 291 294 294 294 294 293 293 291 291 290 290 292 292 290 290 292 291 291 293 281 280 284 284 284 285 290 289 291 292 289 291 291 288 292 291 289 290 288 287 285 287 288 282 282 282 281 278 276 273 273
289 292 292 292 292 294 293 293 293 292 291 290 290 290 291 292 291 292 292 286 288 286 280 289 284 283 280 281 283 288 288 289 291 286 290 290 288 290 285 287 289 289 288 282 280 283 276 275 272 272 271 269 267 266
288 290 290 290 291 292 293 293 291 290 290 290 288 288 291 290 291 290 289 287 282 273 279 283 282 284 283 286 287 287 286 286 280 288 289 284 289 282 279 278 278 268 270 272 269 269 268 265 266 266 263 264 264 262
288 288 289 289 289 289 289 289 290 289 289 286 288 288 289 288 289 284 281 280 280 277 280 279 285 284 282 288 290 289 288 284 287 287 284 288 276 267 267 265 266 266 265 267 264 264 263 262 260 261 262 263 263 260
287 287 287 288 288 288 289 289 289 289 287 287 288 288 286 278 269 265 263 271 274 274 283 282 282 288 286 290 290 289 286 288 287 284 279 270 265 263 264 261 260 261 261 260 258 260 260 260 259 256 258 261 261 260
285 285 286 287 287 287 287 288 288 289 287 287 285 283 270 274 273 270 268 274 274 282 280 283 284 288 289 289 289 289 287 286 282 273 266 265 262 260 259 259 259 259 259 258 259 259 260 259 259 257 258 259 260 260
281 283 284 285 284 284 286 286 286 284 281 283 280 259 266 270 276 273 272 277 278 283 283 284 287 287 286 285 286 278 279 273 267 265 263 262 261 260 261 258 256 258 257 259 258 258 256 257 258 258 256 258 259 260
281 282 282 282 282 282 282 279 279 281 279 274 279 268 262 260 264 266 268 272 276 280 281 284 284 287 287 287 286 272 269 267 264 263 262 261 259 257 257 256 256 258 258 257 257 256 256 257 257 256 258 259 260 260
281 281 281 281 281 281 270 271 271 276 269 265 269 269 268 267 266 266 268 271 272 274 278 281 284 281 273 266 264 266 264 264 265 263 261 259 259 258 257 257 256 256 255 255 255 255 256 258 258 258 259 259 259 259
280 279 278 279 281 270 267 268 269 268 266 267 265 266 268 269 267 266 268 269 274 272 268 269 264 261 261 260 259 259 260 260 262 264 264 261 258 258 256 256 256 255 255 256 256 257 257 257 258 258 258 259 259 258
277 276 276 278 272 268 265 265 264 263 263 262 260 267 268 267 266 266 267 266 265 259 261 256 257 257 257 257 257 255 258 257 259 259 260 260 257 256 255 255 255 256 256 255 254 256 258 257 258 258 258 258 258 258
274 274 274 272 270 267 266 265 264 263 264 262 264 264 263 265 265 264 264 261 259 256 254 255 255 254 254 256 255 255 255 256 258 258 258 258 258 257 255 255 257 254 256 256 257 257 258 258 258 258 258 258 258 259
272 271 268 267 268 266 265 266 267 266 268 267 266 269 265 264 262 264 261 258 256 256 254 253 254 254 253 255 256 256 255 256 257 256 256 256 256 256 257 257 258 257 255 258 258 258 258 258 258 258 258 258 259 259
268 261 264 262 264 264 264 266 267 268 266 265 268 267 262 261 262 263 259 257 256 256 255 254 254 255 257 257 257 255 254 255 256 255 255 256 256 254 256 257 258 258 258 259 258 258 258 258 258 258 258 258 258 258
264 257 259 259 260 263 263 263 264 266 265 264 265 265 262 260 264 261 260 258 257 256 254 252 252 253 253 254 256 255 255 255 256 256 256 257 258 258 258 259 259 259 259 259 259 259 258 258 258 258 258 258 258 258
257 255 257 255 258 260 260 263 262 261 263 263 260 260 259 263 261 258 256 255 255 254 254 252 250 251 255 254 255 256 255 256 256 256 257 257 258 258 252 251 250 259 259 259 258 258 258 258 258 258 258 258 258 258
256 255 254 256 256 257 260 260 260 260 258 258 256 261 262 260 258 255 255 255 255 254 253 253 253 252 253 254 256 257 257 258 258 258 258 258 258 257 257 256 256 258 258 258 258 258 258 258 258 258 258 259 259 259
253 252 254 255 256 254 257 256 254 254 254 252 255 257 257 256 255 255 256 255 254 255 256 256 256 256 256 256 257 258 259 259 260 259 259 258 258 258 258 258 258 258 258 258 258 258 258 258 258 258 258 258 258 259
253 252 252 257 256 253 250 252 252 250 249 249 256 257 256 256 255 254 254 254 255 256 256 256 256 258 257 257 257 257 257 257 257 257 257 257 258 258 257 257 258 258 258 258 258 258 258 258 259 259 259 259 259 258
253 250 255 255 254 252 250 247 249 247 248 248 249 256 256 256 256 256 256 256 256 256 256 256 256 256 256 256 256 257 257 256 256 255 255 255 255 256 256 256 257 257 257 257 257 258 258 258 258 258 258 258 257 257
251 250 254 254 253 251 248 245 246 247 249 251 252 255 254 254 256 256 256 256 256 256 256 256 256 256 255 255 254 254 255 256 256 255 255 255 255 255 255 256 256 256 256 256 256 256 256 256 256 256 255 255 255 255
251 248 251 254 253 249 247 249 249 252 252 254 253 253 253 255 256 257 255 255 255 255 255 255 255 255 256 255 255 255 255 255 254 254 254 254 254 254 255 255 255 255 255 255 255 255 255 254 254 254 254 254 254 254
251 252 252 254 253 254 252 251 254 255 254 254 254 253 252 255 256 256 255 254 254 254 254 254 254 254 254 254 253 253 253 253 252 252 253 253 253 254 254 254 254 254 254 254 254 253 253 253 253 253 253 253 253 252

GFSWCAN_925_thetae_024.txt.gz
Theta_e
291 291 293 295 296 296 297 299 299 299 299 300 300 302 301 300 298 294 294 295 294 294 294 293 294 296 295 300 301 294 297 295 296 301 304 300 300 294 293 292 293 296 298 293 294 299 302 289 289 293 292 287 288 287
290 290 292 293 295 296 297 298 299 299 299 300 300 299 299 300 300 296 295 294 294 292 292 292 293 293 294 297 295 292 298 294 296 298 296 293 292 289 290 293 288 294 293 293 295 295 290 289 291 290 289 288 288 287
290 290 290 292 294 295 296 298 299 298 299 299 299 300 300 299 299 298 297 294 293 288 292 291 293 294 293 294 295 295 290 292 293 291 290 290 292 289 288 288 288 288 287 289 290 289 289 289 289 289 287 288 288 287
289 290 290 292 293 294 295 296 298 298 298 299 299 298 298 298 298 299 297 295 294 290 289 292 291 292 294 294 293 292 291 290 289 290 290 288 289 290 288 290 290 289 287 287 287 288 288 288 288 289 288 287 287 287
289 290 290 292 292 293 294 295 296 297 297 297 298 298 298 298 298 298 298 296 296 294 292 289 288 291 293 293 292 291 290 290 290 289 287 287 288 288 286 288 287 287 288 289 289 289 289 289 289 288 288 288 286 286
289 289 290 291 292 293 293 294 295 296 295 296 297 297 298 298 298 299 296 296 297 296 294 292 288 287 290 291 289 289 289 289 289 290 288 288 288 289 285 286 290 288 287 288 289 288 288 289 288 287 287 286 285 284
289 289 290 291 291 292 292 293 295 296 296 296 297 298 297 297 297 295 295 295 296 295 295 293 288 286 289 287 286 288 288 288 289 288 287 289 289 289 284 286 292 289 288 288 287 287 289 287 289 286 285 285 286 286
289 289 290 290 291 292 292 292 294 295 296 296 297 297 297 298 295 294 295 295 296 293 293 295 288 289 288 290 290 288 288 287 288 291 288 288 290 290 287 291 291 290 289 287 287 286 289 289 285 285 283 281 280 282
288 289 290 290 290 291 292 292 294 295 296 295 296 296 294 292 292 292 293 294 294 294 294 294 289 287 288 292 290 290 291 291 291 291 291 291 291 292 291 291 291 289 289 289 286 284 284 284 286 283 281 277 281 282
288 289 291 290 290 291 292 292 294 295 296 296 294 292 291 291 293 294 294 293 292 291 292 291 278 281 291 288 289 287 288 289 293 291 290 293 291 291 291 287 288 289 287 286 283 283 276 279 283 284 281 282 282 283
288 288 290 291 291 292 291 293 294 295 295 291 290 290 290 293 291 288 293 292 293 292 293 287 283 285 283 285 288 291 291 292 293 288 289 285 283 292 292 288 289 287 287 285 286 287 282 282 282 281 280 279 277 275
287 290 291 292 292 292 290 295 295 293 290 290 290 291 291 290 287 289 290 289 286 288 280 286 285 281 281 281 286 290 291 289 289 281 287 285 287 288 283 287 289 286 282 281 279 282 278 278 273 273 271 269 268 269
288 290 290 291 292 293 291 295 292 290 290 290 289 290 289 290 291 291 290 283 282 272 276 282 282 283 283 285 284 285 289 289 282 289 288 285 285 276 271 270 272 269 269 269 268 269 269 266 267 266 264 265 265 264
288 288 289 289 291 293 294 291 290 290 290 287 289 289 288 289 285 287 284 277 278 275 282 278 285 284 279 285 287 285 283 280 282 282 283 280 268 266 266 264 263 267 263 266 264 264 264 263 261 262 263 264 263 261
288 288 288 289 289 289 291 290 289 289 285 285 285 286 283 275 267 264 262 269 271 271 280 280 280 286 283 288 288 285 285 285 282 281 274 266 264 262 262 260 260 261 260 259 258 260 260 260 259 257 260 262 262 261
285 286 286 286 288 289 289 289 289 288 285 284 280 278 270 274 271 268 266 274 275 280 278 281 282 286 286 288 289 289 287 286 280 265 261 262 260 260 258 257 256 256 255 256 258 259 259 259 258 256 258 259 259 260
282 283 284 284 285 286 287 286 286 281 281 283 273 258 262 266 272 270 270 277 278 285 285 287 289 289 285 285 284 279 281 270 264 263 263 261 260 258 258 256 256 256 256 257 257 257 256 258 258 259 257 257 259 260
282 282 282 282 282 283 282 278 279 281 278 274 277 267 262 262 263 265 268 273 279 281 284 286 286 287 287 286 279 269 268 266 266 264 262 260 259 258 258 258 257 257 256 256 256 256 258 259 258 256 258 258 259 260
281 281 281 280 280 280 270 269 270 274 267 266 270 270 269 268 266 267 267 271 273 272 276 278 283 276 268 264 261 262 260 260 261 262 261 260 259 259 259 258 257 256 256 256 256 255 256 258 258 258 259 259 259 259
279 278 277 279 281 270 267 265 267 268 266 266 265 268 269 269 269 269 268 269 269 269 264 265 261 259 260 259 259 258 259 260 259 261 264 261 259 258 256 257 256 255 255 256 256 257 257 257 258 258 259 259 259 259
278 276 277 278 271 267 263 264 264 262 261 264 262 266 267 267 266 266 265 264 263 259 260 257 257 256 256 256 257 256 257 257 258 258 258 260 258 257 256 256 256 256 256 255 255 256 257 257 258 258 258 258 259 258
273 273 274 272 269 266 264 264 263 262 262 261 262 262 262 263 263 263 264 260 258 257 256 255 255 255 255 255 255 255 255 255 257 258 259 258 259 259 258 256 257 257 256 256 257 257 257 258 258 258 258 258 258 259
272 271 267 266 267 265 264 266 265 265 266 265 264 267 264 262 263 264 260 258 257 256 255 254 254 254 253 255 256 256 255 255 255 255 256 257 256 257 257 257 257 257 256 257 258 258 258 258 258 258 258 258 258 259
267 261 263 262 263 263 263 264 266 266 265 266 268 265 261 262 263 262 258 257 257 256 255 254 253 255 255 256 255 255 254 255 256 255 255 258 258 256 256 257 258 258 258 258 258 258 258 258 258 258 258 258 258 258
263 257 258 258 260 262 262 263 264 266 265 264 265 263 261 259 261 259 258 256 256 256 255 254 254 255 255 255 255 255 255 255 256 257 255 256 256 257 257 258 258 258 258 258 258 258 258 258 258 258 258 258 258 258
256 255 256 255 257 259 259 262 261 260 262 261 259 260 260 261 259 257 255 255 254 255 254 253 252 253 256 254 253 255 255 256 256 257 256 256 257 256 253 253 251 257 257 257 257 257 258 258 258 258 258 259 259 258
255 254 254 257 256 257 260 259 259 258 257 257 255 260 261 259 257 254 254 255 254 254 254 254 253 253 253 254 255 256 257 257 257 257 257 257 257 257 256 255 255 257 257 257 257 257 257 257 257 257 257 258 258 258
253 252 254 254 255 254 256 255 253 253 253 251 255 256 256 255 254 253 255 255 254 255 256 256 256 256 256 256 256 256 257 258 259 258 258 258 257 257 257 257 256 257 257 257 257 257 257 257 257 257 257 257 258 258
253 252 252 256 255 252 250 251 251 250 249 249 255 256 255 255 254 254 255 255 256 256 256 256 256 256 256 256 256 256 256 256 255 255 255 254 254 256 256 256 256 256 256 256 257 257 257 258 259 259 258 258 258 258
253 251 255 254 253 252 250 247 249 248 248 249 251 256 256 256 256 255 256 256 256 256 256 255 255 255 255 254 254 254 255 255 255 254 253 252 254 254 255 255 255 256 256 255 256 256 256 256 257 257 257 256 256 256
251 251 253 253 252 250 249 247 247 248 250 253 254 254 253 253 256 255 254 255 255 255 255 254 254 254 253 253 253 253 254 254 253 253 253 253 253 253 253 254 254 255 255 254 255 254 254 254 254 254 254 254 254 254
252 250 253 255 252 250 249 250 251 253 254 254 254 253 253 254 255 255 253 254 253 253 252 252 252 252 252 252 252 252 252 251 252 252 251 252 252 252 253 253 253 253 253 253 253 253 253 253 253 253 252 252 252 252
251 253 252 253 253 253 251 251 254 254 254 254 253 252 252 255 255 255 253 252 252 252 251 251 251 252 252 251 251 251 251 251 251 251 251 251 251 252 252 253 252 252 252 251 251 251 251 251 251 251 251 251 251 250

GFSWCAN_925_thetae_030.txt.gz
Theta_e
290 290 290 291 291 292 292 293 294 296 297 299 299 300 300 300 298 299 298 299 298 298 297 295 297 300 299 301 303 297 301 299 301 308 309 307 306 303 304 300 303 307 309 309 309 311 314 293 292 302 302 293 295 294
289 289 290 290 291 291 291 292 293 295 297 298 298 299 300 300 300 297 296 296 295 295 295 293 294 294 295 300 297 295 300 299 303 305 304 300 301 298 302 306 292 306 306 308 308 309 293 293 295 293 293 295 291 293
289 289 290 290 290 291 291 292 292 294 296 297 298 299 299 299 300 296 296 295 293 293 293 293 294 293 295 296 297 300 296 298 298 295 299 298 301 297 303 303 297 294 291 299 300 294 292 292 291 291 291 292 292 291
289 289 289 289 290 290 291 291 291 293 294 296 297 299 299 298 299 296 296 295 293 292 295 294 290 292 292 294 295 295 294 292 292 295 298 299 302 294 299 297 299 296 293 293 292 289 291 291 291 292 291 289 289 288
288 288 289 288 289 290 290 291 291 291 294 296 297 298 298 298 299 298 297 295 295 297 297 293 288 290 291 292 291 292 293 293 293 295 296 297 293 293 290 290 294 291 291 294 297 292 293 293 293 291 291 291 290 289
288 288 288 289 289 289 290 290 291 292 294 295 296 297 297 298 298 297 295 294 294 296 296 297 288 289 289 290 290 291 291 292 293 295 293 291 289 293 296 297 293 290 290 292 292 291 291 291 291 290 291 291 289 288
288 288 288 289 290 290 290 290 291 293 294 294 296 294 297 297 298 297 297 296 295 296 296 295 292 289 288 288 289 289 289 290 292 291 292 291 290 292 292 296 290 290 290 289 289 288 289 288 290 288 288 288 287 287
288 288 288 289 289 289 289 290 291 292 293 294 295 295 297 298 298 296 295 295 296 294 294 295 290 291 289 291 291 289 290 291 291 291 290 291 291 291 293 291 290 289 289 289 288 288 290 289 287 286 284 284 284 285
287 287 287 288 289 289 289 290 291 292 293 294 295 295 295 297 293 293 296 296 296 295 297 293 292 293 290 292 291 291 291 293 290 292 292 292 291 292 293 291 290 289 289 290 288 287 285 286 288 285 284 282 285 286
286 287 287 288 288 288 289 289 291 292 293 293 294 292 295 291 294 296 292 293 293 293 294 291 285 291 292 292 292 292 291 292 293 291 290 293 292 292 291 290 290 289 289 287 287 286 282 284 285 286 284 285 285 285
286 287 287 287 288 289 289 289 290 291 292 293 292 293 291 293 292 293 294 296 293 294 293 286 285 290 288 293 292 290 293 293 294 291 293 292 293 288 275 278 276 276 277 282 285 287 286 287 287 286 284 282 282 281
287 287 288 288 290 291 291 289 290 291 291 292 291 291 291 291 290 292 293 291 293 294 286 288 287 288 287 289 293 293 293 292 293 288 293 291 288 273 269 269 269 268 268 271 272 275 277 278 275 277 276 275 273 272
287 289 289 287 292 291 292 290 290 291 291 291 291 292 292 291 291 291 290 288 289 284 285 286 289 288 286 289 291 291 292 292 287 291 291 289 273 269 265 265 264 264 264 266 267 268 268 267 266 267 267 265 267 266
287 288 288 287 291 291 290 291 291 291 291 291 291 290 291 291 291 290 286 286 284 284 284 286 286 290 288 290 290 291 286 288 291 292 290 275 268 264 262 262 260 261 260 262 263 264 264 263 261 261 262 264 264 263
285 285 286 286 287 290 292 291 291 290 288 288 289 289 288 276 271 269 268 278 277 284 286 286 287 288 287 290 289 286 287 289 289 288 277 268 264 261 261 259 258 258 258 259 259 261 261 260 259 258 260 262 263 262
283 283 284 285 286 286 290 291 290 287 278 281 276 282 275 281 277 274 276 280 277 283 283 285 285 286 286 288 286 286 287 286 283 271 267 265 262 261 259 258 257 256 256 257 257 258 259 258 258 257 259 260 261 261
280 281 283 283 284 286 285 285 282 278 277 277 273 267 268 274 274 271 271 277 277 283 286 284 284 286 287 287 284 276 281 272 268 266 264 262 261 260 258 258 256 256 256 256 256 257 257 257 258 259 259 257 259 260
279 280 281 281 281 283 279 275 278 276 273 271 274 269 268 267 270 270 272 274 278 281 280 283 285 283 282 283 276 267 265 264 265 264 262 261 260 258 258 258 257 257 256 257 257 258 259 259 259 258 257 258 258 259
279 279 279 279 280 277 275 271 270 272 268 269 270 270 268 268 267 266 268 269 270 268 271 273 266 266 264 262 262 262 261 260 261 261 261 259 258 257 257 257 257 256 256 257 257 257 256 257 257 258 258 259 258 258
278 278 278 278 279 273 272 268 268 271 270 268 268 269 269 268 268 265 263 264 264 263 258 259 257 256 257 257 257 258 259 259 259 261 262 260 258 257 256 257 257 256 257 257 258 258 259 258 257 258 258 258 259 258
277 276 276 276 270 266 265 266 266 266 267 267 265 268 268 266 264 263 262 261 260 258 258 257 256 256 256 255 256 256 257 256 257 257 259 259 259 257 257 257 257 258 258 259 259 259 259 258 257 258 258 258 258 258
272 273 271 270 266 264 265 265 266 264 266 265 265 263 263 263 262 260 261 258 257 256 256 256 255 255 255 256 255 255 254 255 255 256 257 257 258 258 257 256 258 258 257 257 258 258 258 257 257 258 258 258 259 259
270 269 265 263 265 263 264 264 264 264 268 266 262 263 261 261 262 260 258 258 257 257 255 255 255 254 255 256 255 255 254 255 255 255 255 255 256 256 256 256 257 258 258 256 257 257 257 258 258 258 258 258 258 258
266 258 259 258 259 260 262 263 264 263 264 264 263 261 260 260 260 258 256 256 256 256 255 254 255 257 257 257 256 255 254 256 256 255 255 257 257 255 256 256 256 256 256 256 257 257 257 257 258 258 257 257 257 257
259 254 255 254 257 258 261 260 261 262 262 260 260 261 260 259 257 255 256 254 254 254 254 254 255 256 256 256 257 256 255 255 255 256 255 256 257 257 256 256 256 255 256 256 256 256 256 257 257 257 257 256 256 257
253 254 254 254 256 256 258 258 258 258 260 259 258 259 259 258 256 254 254 254 254 254 254 254 253 254 255 255 255 256 255 256 256 256 255 256 256 255 255 255 256 256 255 255 255 255 256 256 256 256 256 257 257 256
253 252 254 255 254 255 256 256 256 255 254 254 254 259 258 256 255 254 254 255 255 254 254 254 254 254 254 255 255 255 256 256 256 256 256 255 255 254 254 253 253 254 254 255 255 255 255 255 255 256 256 256 257 257
253 252 252 253 252 252 253 253 252 251 252 251 254 255 255 253 253 253 255 255 255 255 255 254 254 254 254 254 254 254 255 256 256 256 256 256 255 254 254 254 254 254 254 254 254 254 254 255 255 255 255 255 255 256
253 253 253 253 253 252 250 251 251 251 250 249 253 254 254 254 253 253 254 255 255 254 253 253 253 253 253 253 253 253 253 253 252 251 251 252 253 253 252 252 252 253 253 253 253 253 254 255 255 254 254 254 254 254
252 252 253 252 252 252 251 249 251 250 249 250 253 255 254 253 253 254 254 254 253 252 252 252 251 251 250 250 250 251 251 251 251 250 247 248 249 251 251 251 251 252 252 251 251 252 252 252 252 253 252 252 252 252
252 251 253 253 253 251 251 250 250 253 255 255 255 254 253 253 253 252 252 252 252 252 252 251 251 251 250 249 249 249 249 250 250 250 250 250 250 251 251 251 251 251 251 251 251 251 251 251 250 250 250 250 250 250
251 249 253 254 253 252 251 252 252 253 253 254 254 251 252 253 252 252 252 252 251 251 251 251 251 250 251 251 250 249 250 250 249 250 250 250 250 250 250 251 251 251 250 250 250 250 250 249 249 249 249 249 249 249
251 252 252 253 253 254 252 252 255 255 254 253 253 252 251 252 252 252 252 252 252 251 251 251 251 250 251 251 250 250 250 249 249 250 250 250 250 250 250 251 250 250 249 249 249 248 248 248 247 247 247 247 247 247

GFSWCAN_925_thetae_033.txt.gz
Theta_e
291 291 290 291 291 291 292 292 293 293 294 295 297 298 300 299 300 300 300 299 300 301 300 297 298 301 300 302 305 300 303 301 303 310 312 310 311 308 311 309 309 312 313 314 316 318 320 297 296 309 305 297 300 303
291 290 290 290 290 291 291 292 292 292 293 294 296 298 299 299 301 299 299 299 298 299 298 294 295 295 295 296 299 297 301 302 304 308 307 305 306 303 308 312 297 310 310 314 313 313 295 295 296 296 295 300 295 298
290 290 290 290 290 290 291 291 292 292 293 294 295 297 299 298 299 297 298 296 295 297 296 295 296 294 296 295 296 302 299 299 299 297 303 302 305 302 307 307 302 298 297 306 306 297 297 295 294 293 293 294 294 294
289 289 289 289 289 289 290 290 291 292 292 293 295 295 298 299 298 298 297 296 296 297 301 297 291 293 292 294 295 295 296 294 295 297 301 303 304 296 304 300 304 299 297 300 296 293 292 295 294 294 294 291 291 291
288 288 289 289 289 289 289 289 290 291 291 292 293 295 297 298 298 298 297 297 295 299 301 297 291 290 291 292 294 296 295 296 297 300 301 301 296 295 293 292 297 293 294 297 301 294 299 297 296 294 293 292 291 291
287 288 288 289 289 289 289 290 290 291 291 291 292 294 296 297 298 297 295 295 295 295 299 299 291 291 291 291 293 295 294 294 296 299 296 293 290 297 302 303 294 293 292 294 293 294 293 292 294 293 292 292 291 290
287 288 288 289 288 289 290 290 290 291 291 292 293 295 296 297 298 296 298 298 296 295 298 295 295 290 289 291 291 291 291 292 295 294 295 293 291 295 296 299 294 292 292 290 291 291 291 290 291 291 290 290 290 288
287 288 288 288 289 289 289 289 290 290 291 292 294 295 296 297 298 297 296 296 296 294 294 298 293 293 290 293 293 290 292 293 293 293 292 293 292 293 296 293 292 291 290 290 290 290 290 289 289 288 286 285 285 286
287 288 288 288 288 289 289 289 290 290 291 293 294 295 296 294 293 294 296 296 296 296 299 296 295 295 291 293 292 292 293 295 292 294 294 294 294 296 294 292 291 290 291 291 289 288 287 288 289 287 286 284 286 287
287 287 287 287 288 288 288 288 289 290 291 293 293 293 295 291 294 296 297 295 294 294 295 297 294 294 293 294 294 294 294 294 294 294 291 294 295 291 282 281 280 280 280 286 289 289 286 287 287 287 286 286 286 286
287 287 287 287 287 287 288 289 289 290 291 292 293 295 292 295 294 294 296 297 296 296 295 291 293 292 291 295 295 293 295 294 295 294 295 295 295 284 275 275 274 273 273 276 277 280 283 284 287 287 285 284 282 281
287 287 287 287 288 288 290 290 290 290 291 292 292 291 290 293 294 295 296 294 296 296 289 292 292 293 291 293 295 294 296 294 296 292 295 295 288 273 270 269 269 268 267 269 271 273 274 274 273 276 276 276 273 272
287 287 287 288 289 288 291 291 291 290 289 291 293 293 294 293 293 294 293 293 292 290 289 290 292 290 290 292 294 294 295 294 291 294 294 292 275 271 266 265 265 265 265 266 267 268 268 267 266 266 268 267 268 267
287 287 287 288 287 289 291 292 292 290 291 293 293 293 294 293 292 293 294 294 290 291 290 293 290 293 292 293 293 294 289 291 294 293 293 280 269 265 264 263 261 262 261 263 264 265 265 264 263 262 263 264 266 265
285 285 285 286 287 288 291 291 291 290 289 291 291 292 291 280 277 277 278 285 284 290 291 291 291 291 292 292 290 288 289 292 293 292 280 271 265 264 263 261 260 260 260 261 261 262 262 261 261 260 260 262 263 263
284 284 283 285 286 288 290 290 288 284 277 281 278 284 280 284 280 281 284 285 283 291 290 291 291 292 291 291 290 291 291 291 285 273 269 267 264 262 261 260 259 258 259 259 259 260 259 259 259 259 259 260 261 261
280 281 281 283 284 285 286 286 280 277 277 279 274 271 273 277 277 276 278 280 280 289 290 291 291 291 290 289 285 276 281 272 270 267 265 263 262 261 260 260 258 258 259 259 259 259 259 259 260 260 260 258 259 260
279 279 280 281 283 284 277 276 278 277 274 273 275 271 271 270 274 272 273 273 280 285 287 287 287 285 282 286 277 268 266 266 265 265 263 262 261 260 260 260 259 259 259 258 259 260 260 261 261 260 259 260 260 260
279 278 278 278 280 278 276 272 273 273 271 272 272 272 271 269 267 266 267 269 267 267 270 270 266 266 264 262 263 263 262 262 262 263 262 260 259 258 259 258 259 258 258 259 260 259 259 259 259 260 260 261 261 260
278 277 276 277 278 276 274 270 271 273 272 270 270 271 270 268 267 265 263 264 264 263 259 260 258 258 259 258 258 259 260 260 261 263 264 262 260 259 258 259 259 259 260 260 260 260 261 260 259 259 259 260 262 260
278 275 275 275 270 268 268 269 269 269 270 269 267 270 269 267 264 263 262 262 260 258 258 258 257 257 256 257 257 257 258 257 259 259 260 261 260 260 259 260 259 260 261 261 262 260 260 259 258 258 259 259 258 258
271 272 271 269 270 269 269 267 269 267 269 268 267 266 266 265 263 260 261 259 258 257 257 256 256 256 257 257 256 256 255 256 257 258 258 259 260 260 259 258 260 259 259 259 259 259 259 258 257 258 258 258 258 258
269 268 265 264 268 268 267 268 269 268 271 268 267 266 264 264 262 261 259 258 257 257 256 256 256 256 257 257 256 256 255 257 258 257 258 258 257 257 257 257 257 258 259 257 257 257 257 257 257 257 257 257 258 258
264 259 260 260 261 263 265 265 266 267 267 267 266 265 262 262 261 259 257 257 257 256 256 255 257 259 259 258 257 256 255 257 258 257 256 259 258 257 256 256 255 255 254 255 256 256 256 256 257 257 257 257 257 257
259 254 257 255 258 260 261 262 261 264 263 263 264 263 261 261 259 257 257 256 256 256 256 256 256 257 257 257 257 257 255 255 257 257 256 257 258 258 257 256 255 255 255 255 255 255 255 256 256 256 256 256 256 256
253 255 255 255 256 258 258 259 258 259 261 260 260 261 260 258 256 255 255 255 255 255 255 255 255 256 256 256 256 256 256 256 257 256 255 255 256 256 256 256 256 255 254 254 253 254 254 254 255 255 255 256 256 255
253 253 256 256 254 255 256 256 256 255 254 255 255 259 259 256 255 255 256 256 256 255 255 254 255 255 255 255 255 255 255 255 256 256 255 254 254 253 253 253 253 253 253 253 254 253 253 254 254 254 254 255 255 255
254 254 253 255 253 253 254 253 253 252 253 252 255 255 254 254 255 255 255 255 255 255 254 253 253 253 253 252 253 253 254 255 255 255 255 255 254 253 253 252 252 252 253 253 253 253 253 253 254 254 254 253 253 253
255 254 254 253 254 253 252 253 253 252 252 251 255 255 254 254 254 255 255 254 254 254 253 252 251 252 252 252 252 251 252 252 252 249 249 251 252 252 252 251 251 252 252 252 252 252 252 253 254 253 252 252 252 252
253 253 254 253 252 253 253 251 253 253 251 252 255 254 254 253 252 253 253 253 252 251 251 251 250 250 249 249 250 251 250 250 250 249 248 249 250 250 250 251 251 251 251 251 250 251 251 251 251 251 251 250 250 250
253 255 254 254 254 253 253 252 255 255 255 254 254 254 253 253 252 252 252 252 252 252 252 251 251 250 250 249 249 249 249 250 250 250 249 249 250 250 250 250 250 250 250 250 250 250 249 249 249 248 248 248 248 248
253 250 253 255 255 254 253 254 255 256 255 255 255 254 254 254 252 252 252 252 252 251 251 251 251 251 250 250 250 250 249 249 249 249 249 249 250 250 250 250 250 250 250 249 249 249 248 247 247 247 247 247 247 247
252 252 251 251 252 253 251 251 254 254 255 253 253 252 251 251 251 252 253 253 252 251 252 252 251 251 251 250 250 250 250 249 249 249 249 249 249 250 250 250 250 250 249 249 248 248 247 247 247 246 246 246 246 246